Tracking 31027 objects as of 19-Jul-2025
HD Live streaming from Space Station
objects crossing your sky now

GALAXY 1R

Track GALAXY 1R now!
GALAXY 1R is classified as:


NORAD ID: 23016
Int'l Code: 1994-013A
Perigee: 36,085.8 km
Apogee: 36,095.3 km
Inclination: 12.5 °
Period: 1,451.3 minutes
Semi major axis: 42461 km
RCS: 8.3555 m2 (large)
Launch date: February 19, 1994
Source: United States (US)
Launch site: AIR FORCE EASTERN TEST RANGE (AFETR)

24 C-band; North America, Caribbean.
Your satellite tracking list
FENGYUN 1C DEB
Track 1 satellite(s)




NASA's NSSDC Master Catalog

Two Line Element Set (TLE):
1 23016U 94013A   25199.59118240 -.00000271  00000-0  00000-0 0  9996
2 23016  12.5085  24.8114 0001121 191.2851  56.2570  0.99222390 42879
Source of the keplerian elements: AFSPC